Flag Weather past 2 weeks in Abidjan, Cote d'Ivoire (Ivory Coast)

Now
86 °F

Scattered clouds.


Feels Like: 95 °F
Forecast: 78 / 87 °F
Wind: 14 mph from Southwest

Location: Abidjan Airport

Current Time: Nov 1, 2014 at 12:34:20 PM

Latest Report: Nov 1, 2014 at 12:00 PM


Visibility: 6 mi

Pressure: 29.86 "Hg

Humidity: 70%

Dew point: 75 °F

Location of AbidjanLocation

Historic Weather in Abidjan — Graph

°F

Abidjan temperature yesterday

Maximum temperature yesterday: 86 °F (at 11:30 AM)
Minimum temperature yesterday: 73 °F (at 5:00 AM)
Average temperature yesterday: 80 °F

Past Weeks' High & Low Weather Summary

 TemperatureHumidityPressure
High86 °F (Oct 28, 1:00 PM)100% (Oct 19, 8:00 AM)29.98 "Hg (Oct 19, 8:00 AM)
Low73 °F (Oct 19, 8:30 AM)66% (Oct 31, 11:30 AM)29.74 "Hg (Oct 29, 3:30 PM)
Average80 °F85%29.86 "Hg
* Reported Oct 17 11:00 AM — Nov 1 11:30 AM, Abidjan, Weather by CustomWeather, © 2014

Note: Actual official high and low records may vary slightly from our data, if they occured in-between our weather recording intervals... More about our weather records

Advertising

Abidjan weather history for previous 24 hours

 ConditionsComfort  
Time TempWeatherWind HumidityBarometerVisibility
11:30 AM
Nov 1
86 °FScattered clouds.14 mph70%29.86 "Hg6 mi
11:00 AM84 °FScattered clouds.14 mph74%29.89 "Hg6 mi
10:30 AM84 °FScattered clouds.13 mph74%29.89 "Hg6 mi
10:00 AM84 °FScattered clouds.12 mph74%29.89 "Hg6 mi
9:30 AM84 °FScattered clouds.9 mph79%29.89 "Hg4 mi
9:00 AM81 °FScattered clouds.5 mph89%29.89 "Hg4 mi
8:30 AM81 °FScattered clouds.6 mph89%29.89 "Hg4 mi
8:00 AM82 °FScattered clouds.8 mph84%29.89 "Hg4 mi
7:30 AM81 °FScattered clouds.9 mph89%29.86 "HgN/A
7:00 AM81 °FScattered clouds.5 mph89%29.86 "HgN/A
6:30 AM79 °FScattered clouds.5 mph89%29.86 "HgN/A
6:00 AM79 °FPassing clouds.3 mph89%29.86 "HgN/A
5:30 AM79 °FPassing clouds.6 mph89%29.83 "HgN/A
5:00 AM79 °FPassing clouds.6 mph89%29.83 "HgN/A
4:30 AM79 °FPassing clouds.3 mph89%29.83 "HgN/A
4:00 AM79 °FPassing clouds.3 mph89%29.83 "HgN/A
3:30 AM79 °FPassing clouds.6 mph89%29.83 "HgN/A
3:00 AM79 °FPassing clouds.7 mph89%29.83 "Hg5 mi
2:30 AM79 °FPassing clouds.7 mph89%29.83 "Hg5 mi
2:00 AM79 °FPassing clouds.8 mph89%29.83 "Hg5 mi
1:30 AM79 °FPassing clouds.8 mph89%29.83 "Hg5 mi
1:00 AM81 °FPassing clouds.8 mph84%29.86 "Hg5 mi
12:30 AM81 °FPassing clouds.8 mph84%29.86 "Hg5 mi
12:00 AM81 °FPassing clouds.8 mph89%29.86 "Hg5 mi
11:30 PM
Oct 31
81 °FPassing clouds.9 mph84%29.89 "Hg5 mi
11:00 PM81 °FPassing clouds.9 mph84%29.89 "Hg5 mi
10:30 PM81 °FPassing clouds.10 mph84%29.86 "Hg5 mi
10:00 PM81 °FPassing clouds.10 mph84%29.89 "Hg5 mi
9:30 PM81 °FPassing clouds.8 mph89%29.86 "Hg5 mi
9:00 PM81 °FPassing clouds.9 mph89%29.89 "Hg5 mi
8:30 PM81 °FPassing clouds.8 mph89%29.86 "Hg5 mi
8:00 PM81 °FPassing clouds.9 mph84%29.86 "Hg5 mi
7:30 PM81 °FPassing clouds.9 mph84%29.86 "HgN/A
7:00 PM81 °FPassing clouds.10 mph89%29.83 "HgN/A
6:30 PM81 °FPassing clouds.10 mph84%29.83 "HgN/A
6:00 PM81 °FPassing clouds.9 mph84%29.80 "HgN/A
5:30 PM82 °FPassing clouds.10 mph79%29.80 "HgN/A
5:00 PM82 °FPassing clouds.9 mph79%29.80 "HgN/A
4:30 PM82 °FPassing clouds.10 mph79%29.80 "HgN/A
4:00 PM84 °FPassing clouds.12 mph74%29.80 "HgN/A
3:00 PM84 °FPassing clouds.12 mph70%29.80 "HgN/A
2:30 PM86 °FPassing clouds.12 mph66%29.83 "HgN/A
2:00 PM84 °FPassing clouds.9 mph70%29.83 "HgN/A
1:30 PM84 °FScattered clouds.12 mph74%29.83 "HgN/A
1:00 PM84 °FScattered clouds.9 mph74%29.86 "HgN/A
12:30 PM84 °FScattered clouds.9 mph70%29.86 "HgN/A
12:00 PM84 °FScattered clouds.8 mph70%29.89 "HgN/A
Weather by CustomWeather, © 2014

See weather overviewHow to use our weather pages